This is the latest recevied weather packets stored in our database for station/object W4GAP. If no packets are shown the sender has not sent any weather packets the latest 10 day(s).
| Time | Temp. | Humidity | Pressure | Rain* | Wind** | Luminosity | Snow |
|---|---|---|---|---|---|---|---|
| 1777501500 | 25° C | 71% | 1007.2 hPa | 0 mm | - | 37 W/m² | - |
| 1777501197 | 25° C | 71% | 1007.4 hPa | 0 mm | - | 24 W/m² | - |
| 1777500895 | 25° C | 70% | 1007.5 hPa | 0 mm | - | 35 W/m² | - |
| 1777500592 | 25.56° C | 70% | 1007.5 hPa | 0 mm | - | 29 W/m² | - |
| 1777500288 | 25.56° C | 70% | 1007.1 hPa | 0 mm | - | 26 W/m² | - |
| 1777499985 | 25.56° C | 69% | 1007.1 hPa | 0 mm | - | 32 W/m² | - |
| 1777499682 | 25.56° C | 70% | 1007.1 hPa | 0 mm | - | 34 W/m² | - |
| 1777499378 | 25.56° C | 68% | 1007.1 hPa | 0 mm | - | 41 W/m² | - |
| 1777499077 | 25.56° C | 68% | 1007 hPa | 0 mm | - | 35 W/m² | - |
| 1777498773 | 25.56° C | 67% | 1007.1 hPa | 0 mm | - | 42 W/m² | - |
| 1777498469 | 26.11° C | 66% | 1007 hPa | 0 mm | - | 41 W/m² | - |
| 1777498166 | 25.56° C | 69% | 1007.2 hPa | 0 mm | - | 46 W/m² | - |
| 1777497864 | 25.56° C | 67% | 1007.1 hPa | 0 mm | - | 27 W/m² | - |
| 1777497560 | 26.11° C | 68% | 1007 hPa | 0 mm | - | 46 W/m² | - |
| 1777497256 | 26.11° C | 67% | 1007 hPa | 0 mm | - | 43 W/m² | - |
| 1777496952 | 26.11° C | 68% | 1007 hPa | 0 mm | - | 117 W/m² | - |
| 1777496650 | 26.11° C | 66% | 1007 hPa | 0 mm | - | 65 W/m² | - |
| 1777496346 | 26.11° C | 66% | 1007.2 hPa | 0 mm | - | 35 W/m² | - |
| 1777496042 | 26.11° C | 66% | 1007.2 hPa | 0 mm | - | 70 W/m² | - |
| 1777495738 | 26.11° C | 68% | 1007.4 hPa | 0 mm | - | 41 W/m² | - |
| 1777495435 | 26.11° C | 68% | 1007.4 hPa | 0 mm | - | 53 W/m² | - |
| 1777495130 | 26.11° C | 67% | 1007.1 hPa | 0 mm | - | 54 W/m² | - |
| 1777494828 | 26.11° C | 67% | 1007.2 hPa | 0 mm | - | 56 W/m² | - |
| 1777494525 | 26.67° C | 66% | 1007.6 hPa | 0 mm | - | 59 W/m² | - |
| 1777494223 | 26.67° C | 64% | 1007.9 hPa | 0 mm | - | 72 W/m² | - |
* Rain latest hour (hover to see other rain measurements)
** Current wind speed in m/s (hover to see current wind gust speed)